Wind_Speed
9 9 15 20 19 18 23 29 35 34 31 48 44 28 27 25 17 15 12 11 14 17 19 25 28 29 34 45 57 66 68 59 53 79 44 36 65 55 59 59 56 54 50 45
11 11 15 16 19 21 23 29 32 35 43 41 30 31 15 8 10 14 17 19 20 22 23 26 30 29 30 42 52 75 77 65 55 60 54 44 58 62 66 61 59 56 52 46
9 8 12 16 24 33 27 21 32 40 44 28 24 17 9 14 18 22 19 25 26 29 34 33 37 36 32 35 45 57 70 76 60 62 66 52 45 37 69 62 60 58 53 47
9 11 12 16 26 35 31 31 39 38 23 12 26 8 25 12 18 24 26 27 35 40 41 42 45 46 41 37 42 48 63 80 70 59 68 63 42 42 62 63 60 59 53 50
17 6 11 22 26 33 22 35 39 22 13 15 10 8 10 27 17 22 28 36 40 47 50 46 47 51 50 45 45 40 51 81 71 63 74 63 49 51 53 65 65 59 53 51
15 8 9 23 24 21 28 38 8 5 9 3 2 18 18 15 28 34 36 38 53 59 52 43 41 42 51 53 51 45 42 51 83 66 55 66 68 35 46 76 69 61 54 52
20 8 12 16 37 7 26 38 9 10 6 5 13 20 16 24 30 33 38 58 52 46 44 43 40 39 36 47 53 51 42 42 73 76 56 47 51 56 52 53 73 58 55 55
21 8 16 14 30 21 20 25 5 4 5 13 31 8 15 34 28 29 53 48 40 40 40 43 38 35 31 39 50 55 44 43 81 68 66 52 34 55 46 60 68 58 58 55
13 10 19 12 30 13 13 17 10 9 11 4 9 17 34 15 27 49 56 43 40 39 39 41 40 34 27 27 42 48 46 42 66 74 60 65 71 57 53 56 68 59 56 47
13 16 10 17 20 11 12 14 7 8 7 7 8 20 18 30 43 66 59 49 47 43 36 32 34 33 28 27 35 41 40 41 75 66 66 73 51 55 54 49 73 56 50 47
19 12 15 27 14 16 8 10 12 7 7 3 7 11 29 26 58 68 60 47 48 45 36 31 28 28 25 28 34 41 39 43 68 66 59 68 48 39 34 54 69 60 52 54
18 12 21 26 12 6 9 18 21 4 4 13 17 14 21 47 61 69 53 51 50 44 34 29 25 23 21 27 34 38 36 46 76 67 56 64 65 35 38 51 59 63 58 56
20 11 17 16 4 12 16 29 27 22 10 14 9 19 48 57 68 67 52 56 56 49 33 22 20 18 19 21 32 34 41 47 66 65 48 59 60 56 46 37 58 57 56 48
19 18 18 16 32 33 40 27 26 18 8 24 36 45 58 63 73 65 57 57 58 51 31 16 12 13 16 16 27 35 41 49 71 60 48 46 49 48 40 40 49 49 51 44
21 24 22 38 35 22 16 30 18 16 28 24 44 44 53 67 68 59 56 62 61 52 25 13 9 10 15 17 24 37 39 58 64 49 42 39 49 55 39 35 48 40 46 46
22 20 34 39 8 15 32 11 11 21 46 38 34 41 59 61 60 55 60 64 59 52 26 6 9 9 13 21 34 41 42 54 60 47 38 49 43 52 45 42 41 41 36 51
20 26 32 11 26 28 4 6 20 45 49 25 28 49 60 61 62 59 67 62 58 51 31 7 3 10 18 26 31 51 51 55 57 39 43 42 49 45 41 36 25 34 41 43
21 23 17 19 21 4 4 13 31 54 31 31 25 55 53 58 59 58 61 58 58 49 33 12 4 10 18 28 47 52 48 51 43 37 39 42 44 38 30 31 27 23 35 42
18 24 14 9 18 21 7 18 48 58 40 13 51 51 53 58 60 57 56 55 53 46 30 21 9 5 21 40 51 51 47 41 39 33 33 34 35 32 35 22 27 28 15 31
19 21 15 13 6 4 9 28 46 41 17 36 51 51 54 59 68 66 62 54 51 42 23 25 20 18 40 51 50 50 45 48 40 33 33 30 35 34 28 11 22 36 23 23
20 15 14 16 9 13 17 43 45 22 33 55 46 47 50 54 51 56 56 50 49 43 21 19 23 27 47 45 43 39 38 51 40 27 24 22 16 36 14 11 15 29 28 17
12 11 8 11 6 9 35 44 38 41 42 43 41 44 48 49 49 50 50 49 49 46 16 8 23 28 46 47 43 38 38 38 30 22 15 17 16 19 20 18 30 24 20 25
9 18 17 11 20 27 32 35 35 37 37 38 38 40 44 46 48 49 50 47 48 42 33 14 13 35 53 44 38 35 39 34 24 20 17 17 25 19 21 20 21 23 23 29
20 19 18 21 28 29 27 31 32 31 31 33 33 37 40 41 44 45 46 44 41 42 39 25 23 39 41 40 34 38 36 35 24 25 19 15 16 23 15 19 24 18 19 21
17 18 22 27 27 30 27 29 31 27 27 29 27 32 36 39 40 42 43 40 37 38 38 37 30 35 39 38 39 34 34 31 26 24 23 19 22 19 15 15 23 24 19 21
18 19 22 27 28 28 28 29 30 29 29 31 31 27 31 35 37 38 39 38 35 34 37 37 35 33 46 37 37 37 32 31 26 25 19 20 20 19 18 18 28 26 24 24
Wind_Direction
352 353 7 359 355 342 329 326 321 325 330 322 320 316 327 314 321 325 314 298 277 271 260 261 269 273 266 256 247 242 230 224 211 214 217 210 191 199 210 209 213 215 211 207
352 4 3 359 346 335 325 325 329 329 327 320 322 329 309 290 310 311 309 309 303 288 275 269 268 273 272 259 250 237 231 225 212 203 214 209 193 191 214 209 211 216 211 207
352 351 352 344 351 342 340 333 328 321 329 331 329 334 353 309 304 312 312 310 301 298 292 273 264 262 264 265 256 248 240 224 211 208 204 205 206 189 201 199 209 212 207 208
348 328 338 338 351 345 333 336 329 321 318 319 335 295 316 313 315 306 310 309 308 301 294 284 272 264 261 257 260 252 247 230 229 211 205 210 201 203 196 205 213 209 207 212
337 299 324 346 352 339 326 336 327 319 318 314 331 318 300 315 323 317 310 312 312 307 305 294 276 267 261 257 255 253 250 234 219 208 208 194 201 194 198 210 208 212 210 210
355 330 325 338 345 334 334 342 330 336 341 359 39 3 287 315 321 317 317 320 312 307 303 296 288 274 262 256 251 249 244 241 234 217 208 207 208 206 178 205 210 210 208 208
7 348 333 330 344 351 352 5 348 4 4 243 312 324 286 318 316 316 320 314 315 312 305 297 292 283 266 253 246 246 242 243 232 220 206 185 202 212 180 183 202 208 208 208
347 345 335 338 349 341 360 17 54 299 309 297 306 228 312 313 311 315 318 319 319 315 306 294 284 283 267 249 242 241 238 244 229 211 204 200 188 198 188 192 204 210 209 211
339 306 330 326 339 350 349 4 339 279 278 287 278 298 313 314 309 321 333 331 328 320 309 298 283 273 266 249 236 239 233 235 228 217 204 194 199 188 187 190 207 201 205 208
332 301 315 336 332 331 337 341 336 333 329 307 271 308 308 319 325 334 340 338 335 332 316 296 280 269 262 245 232 229 223 227 219 211 191 199 187 189 191 201 201 204 201 204
339 311 308 333 321 316 319 342 346 297 256 279 309 301 316 319 327 335 339 338 338 337 327 312 289 263 257 238 227 224 212 211 218 204 196 195 184 183 183 196 207 213 202 208
335 306 303 328 311 303 310 338 330 337 300 269 263 278 329 323 329 341 339 341 346 347 338 317 291 267 252 231 219 215 210 212 217 200 192 202 194 170 189 198 204 206 205 201
338 324 323 344 314 326 322 317 317 308 299 274 304 279 319 328 339 344 342 348 352 353 343 316 286 264 253 224 210 205 198 203 204 188 190 196 211 213 217 199 204 211 212 210
331 310 308 265 291 298 296 307 305 290 299 308 294 302 333 335 340 347 348 354 356 354 351 333 281 261 241 220 207 195 191 200 199 189 181 181 192 195 206 208 214 207 211 211
326 311 322 316 312 300 293 314 294 282 317 308 308 315 335 336 339 347 349 354 357 355 358 358 302 268 230 197 184 174 177 197 192 175 158 166 192 202 199 204 201 214 206 207
323 315 323 328 309 310 309 305 299 314 333 322 320 324 336 337 343 349 357 357 356 359 1 301 273 251 220 192 173 159 167 183 197 180 165 184 188 201 199 205 213 216 223 211
326 326 328 296 323 319 309 345 332 334 342 322 327 334 335 343 348 355 360 355 360 1 354 310 270 211 200 183 186 159 155 173 183 164 168 182 199 207 215 218 211 225 217 210
326 330 321 300 336 348 323 323 336 338 341 331 336 337 341 344 347 1 358 355 2 3 3 27 220 179 180 174 161 143 156 184 162 156 173 184 195 199 212 217 205 207 217 213
332 335 322 305 312 296 300 336 344 339 337 330 336 341 348 348 351 5 1 6 5 8 9 16 112 166 188 160 142 135 163 162 159 162 178 188 200 213 210 218 204 204 201 206
328 328 316 310 312 281 325 332 334 334 328 334 338 345 348 353 352 355 4 6 8 15 15 50 150 147 145 138 144 145 160 160 152 153 179 188 208 211 217 210 203 216 210 211
333 330 314 309 275 283 318 327 336 349 322 331 339 344 349 350 349 351 359 5 13 19 36 116 128 143 148 148 138 142 155 164 159 157 160 168 173 195 224 235 206 193 196 206
322 331 327 327 293 317 326 325 338 326 330 331 342 346 346 350 351 357 2 8 17 33 56 48 141 133 140 139 134 135 146 152 156 162 164 175 183 200 212 241 200 198 218 212
334 323 305 291 295 320 324 322 325 331 333 337 343 348 346 349 352 358 3 12 23 31 55 126 141 133 122 134 136 137 145 151 150 165 150 163 179 191 216 202 184 183 193 193
322 322 312 318 331 327 332 329 336 339 337 339 345 347 346 349 353 359 4 12 20 32 46 97 130 127 130 141 144 150 148 154 174 187 189 177 189 182 186 195 176 179 179 174
321 321 321 325 334 334 339 336 339 343 342 339 348 347 350 352 357 359 3 10 16 30 42 73 107 134 138 145 141 153 155 156 173 178 185 204 185 204 213 206 191 181 194 201
330 330 329 331 336 334 338 338 339 344 346 343 347 351 355 354 357 359 2 8 15 24 39 58 87 105 135 145 147 144 146 154 157 155 161 174 183 200 212 186 178 179 177 177
Height
3050 3050 3046 3045 3042 3041 3037 3032 3023 3020 3015 3004 2998 2992 2990 2984 2981 2978 2977 2976 2976 2976 2976 2973 2972 2973 2976 2978 2981 2987 2991 2999 3003 3008 3010 3008 3048 3046 3061 3070 3081 3091 3098 3105
3051 3048 3046 3045 3043 3040 3036 3029 3020 3010 3010 3002 2991 2987 2983 2983 2982 2980 2977 2976 2974 2971 2970 2968 2966 2965 2967 2968 2966 2967 2980 2986 2995 3000 3007 3011 3026 3032 3051 3060 3073 3084 3094 3101
3050 3049 3046 3045 3040 3033 3031 3026 3020 3014 2994 2994 2989 2984 2983 2983 2980 2979 2977 2974 2970 2966 2961 2959 2957 2955 2957 2959 2957 2961 2969 2978 2980 2994 3006 3012 3010 3018 3033 3047 3065 3075 3088 3096
3050 3048 3047 3044 3039 3033 3026 3022 3016 3008 3003 2997 2994 2989 2981 2980 2980 2977 2975 2972 2967 2961 2956 2952 2948 2945 2948 2951 2948 2948 2951 2966 2971 2980 2988 3001 3009 3019 3020 3043 3055 3068 3078 3089
3051 3047 3046 3043 3039 3033 3028 3020 3010 3004 3000 2999 2996 2992 2979 2978 2977 2976 2972 2967 2960 2953 2946 2939 2937 2935 2938 2942 2942 2945 2941 2948 2956 2969 2981 2992 3006 3012 3023 3037 3050 3062 3071 3082
3049 3047 3045 3042 3040 3032 3026 3016 3006 3002 3000 3001 2998 2999 2978 2975 2972 2967 2963 2958 2951 2941 2933 2928 2924 2923 2925 2929 2931 2934 2941 2943 2952 2965 2974 2987 2998 3009 3010 3023 3042 3054 3062 3074
3048 3047 3045 3042 3035 3031 3026 3015 3006 3007 3006 3006 2995 2994 2978 2974 2970 2966 2958 2949 2939 2930 2921 2915 2911 2908 2910 2913 2918 2920 2926 2930 2943 2953 2966 2978 2991 3001 3003 3007 3030 3042 3053 3067
3050 3045 3046 3043 3040 3034 3029 3028 3031 3034 3015 3002 2991 2987 2975 2972 2969 2965 2959 2942 2930 2922 2914 2905 2899 2896 2896 2897 2902 2908 2918 2921 2932 2948 2963 2972 2987 2993 2999 3012 3022 3036 3051 3066
3056 3049 3045 3041 3038 3038 3033 3032 3032 3025 3016 3011 2987 2980 2974 2969 2966 2959 2944 2931 2922 2912 2902 2893 2887 2884 2883 2884 2888 2893 2904 2911 2924 2941 2953 2970 2985 2992 3000 3008 3019 3034 3050 3064
3060 3049 3043 3041 3037 3036 3034 3034 3032 3029 3022 3011 2984 2977 2970 2965 2954 2944 2928 2918 2910 2900 2889 2880 2874 2870 2870 2871 2876 2883 2889 2897 2916 2933 2947 2964 2977 2986 2995 3004 3016 3028 3046 3059
3058 3054 3044 3040 3037 3034 3033 3031 3031 3029 3026 3021 3000 2973 2970 2963 2954 2937 2922 2912 2901 2888 2876 2866 2860 2859 2858 2859 2861 2868 2885 2895 2907 2924 2944 2959 2972 2980 2989 2999 3012 3025 3037 3052
3057 3050 3043 3037 3033 3031 3031 3029 3028 3026 3022 3018 3009 2975 2967 2963 2951 2933 2917 2906 2893 2879 2866 2858 2852 2850 2849 2849 2853 2857 2866 2880 2902 2925 2942 2952 2964 2973 2987 2996 3004 3021 3033 3044
3058 3051 3042 3033 3033 3028 3028 3027 3026 3023 3018 3012 3007 2975 2968 2955 2940 2926 2912 2898 2883 2870 2859 2850 2846 2843 2842 2842 2846 2852 2865 2881 2902 2923 2936 2949 2962 2974 2985 2991 3002 3015 3028 3041
3058 3051 3050 3044 3034 3031 3023 3021 3022 3018 3016 3006 2993 2967 2957 2945 2930 2914 2901 2889 2875 2865 2853 2845 2840 2838 2838 2838 2840 2847 2858 2874 2898 2924 2936 2946 2960 2978 2986 2993 3001 3012 3025 3035
3056 3047 3043 3034 3026 3022 3019 3018 3015 3014 3012 3004 2980 2974 2958 2944 2930 2915 2901 2882 2870 2859 2848 2842 2838 2835 2836 2837 2841 2848 2861 2879 2904 2922 2932 2949 2964 2974 2983 2992 2998 3009 3018 3031
3053 3046 3038 3024 3022 3020 3014 3014 3012 3011 3003 2989 2980 2969 2959 2944 2930 2914 2895 2879 2869 2856 2845 2840 2836 2835 2836 2837 2843 2847 2865 2885 2905 2920 2935 2947 2960 2974 2983 2990 2996 3005 3014 3023
3052 3046 3037 3022 3019 3012 3009 3009 3010 3003 2995 2985 2975 2965 2953 2937 2924 2908 2886 2880 2868 2856 2843 2835 2831 2833 2837 2841 2845 2853 2871 2895 2911 2921 2931 2946 2958 2969 2977 2988 2995 3001 3008 3019
3052 3046 3040 3028 3020 3015 3008 3008 3002 2993 2985 2980 2975 2965 2953 2939 2926 2910 2897 2882 2867 2854 2842 2834 2831 2832 2838 2843 2848 2860 2871 2891 2902 2916 2931 2945 2958 2971 2978 2987 2993 2999 3005 3013
3051 3047 3042 3035 3026 3014 3011 3010 3002 2991 2980 2977 2971 2961 2948 2934 2919 2912 2899 2883 2871 2858 2844 2835 2833 2837 2842 2842 2851 2858 2879 2896 2911 2921 2934 2946 2958 2969 2982 2985 2989 2995 3002 3010
3050 3047 3045 3038 3034 3022 3012 3009 3004 2994 2983 2979 2970 2959 2946 2931 2911 2901 2890 2882 2870 2859 2847 2835 2841 2847 2852 2856 2864 2879 2891 2904 2918 2930 2942 2951 2962 2970 2983 2983 2986 2993 3001 3006
3048 3045 3043 3038 3033 3021 3017 3008 3002 2997 2994 2977 2970 2961 2949 2939 2936 2918 2904 2892 2882 2866 2854 2850 2851 2854 2863 2870 2877 2888 2899 2912 2923 2937 2949 2957 2964 2972 2977 2980 2985 2991 2999 3005
3048 3045 3041 3038 3031 3021 3015 3005 3002 2997 2987 2978 2971 2962 2951 2943 2934 2923 2911 2898 2886 2872 2865 2858 2859 2853 2867 2879 2888 2899 2911 2924 2936 2944 2952 2958 2964 2970 2978 2982 2984 2988 2995 3001
3048 3048 3045 3041 3030 3025 3016 3008 3003 2995 2984 2976 2970 2963 2954 2944 2934 2924 2914 2905 2896 2886 2877 2872 2870 2870 2869 2890 2901 2909 2917 2929 2938 2946 2953 2957 2964 2969 2976 2978 2983 2986 2993 2998
3045 3041 3038 3033 3026 3019 3014 3008 3001 2995 2986 2978 2974 2964 2956 2947 2936 2927 2917 2909 2906 2898 2890 2885 2882 2882 2891 2900 2909 2916 2923 2932 2941 2949 2954 2960 2965 2972 2977 2979 2981 2988 2993 2997
3043 3037 3032 3028 3023 3017 3013 3005 2997 2993 2988 2979 2977 2968 2958 2949 2941 2932 2924 2916 2910 2905 2899 2894 2893 2896 2898 2906 2915 2924 2930 2936 2944 2950 2954 2958 2964 2969 2974 2978 2983 2988 2993 2999
3038 3034 3030 3023 3018 3013 3008 3002 2997 2992 2986 2979 2974 2971 2963 2954 2945 2936 2928 2923 2916 2909 2903 2902 2896 2900 2904 2912 2921 2927 2933 2939 2947 2950 2953 2958 2961 2966 2972 2978 2983 2986 2990 2998